sat.trackr.live / text

‹ back to catalog

STARLINK-11499 [DTC]

NORAD 62279 · 2024-237N

PAYLOAD ACTIVE UNKNOWN

§ Identity

Operator
Country
US
Launch date
2024-12-08
Launch site
AFETR
Launch vehicle
Mass (kg)
RCS (m²)

Purposes: comms

External: N2YO · Heavens-Above · Gunter

§ Orbital elements

Epoch: 2026-05-25T04:07:12.012384Z

Period
91.66 min
Inclination
43.0008°
Eccentricity
0.0001919
Mean motion
15.70977599 rev/d
Perigee alt
354.8 km
Apogee alt
357.4 km
Semi-major
6,734.2 km
B*
2.0006e-3
RAAN
316.2482°
Arg perigee
308.7342°
Mean anomaly
51.3354°
Rev number
8,500

§ Raw data

STARLINK-11499 [DTC]1 62279U 24237N   26145.17166681  .00266177  00000+0  20006-2 0  99962 62279  43.0008 316.2482 0001919 308.7342  51.3354 15.70977599 85009

JSON: /api/v1/satellites/62279 · /tle

For live sub-satellite position, see the globe view (requires WebGL).

§ Visibility from observer

Set your observer location to see the next 7 days of passes ≥ 10°. The values pass through the URL so the page stays shareable.

No JS? Fill the form by hand. The geolocation button needs JavaScript.